EST,Max TemperatureF,Mean TemperatureF,Min TemperatureF,Max Dew PointF,MeanDew PointF,Min DewpointF,Max Humidity, Mean Humidity, Min Humidity, Max Sea Level PressureIn, Mean Sea Level PressureIn, Min Sea Level PressureIn, Max VisibilityMiles, Mean VisibilityMiles, Min VisibilityMiles, Max Wind SpeedMPH, Mean Wind SpeedMPH, Max Gust SpeedMPH,PrecipitationIn, CloudCover, Events, WindDirDegrees
2013-1-1,32,24,15,31,22,8,92,83,74,30.24,30.15,30.07,10,6,2,14,7,16,T,6,Snow,333
2013-1-2,24,13,2,10,6,1,91,68,44,30.32,30.27,30.24,10,10,9,7,2,10,0.08,0,,190
2013-1-3,32,18,3,27,16,0,88,77,66,30.39,30.31,30.25,10,10,8,16,5,20,0.00,5,,255
2013-1-4,32,24,15,23,18,14,92,78,63,30.43,30.38,30.34,10,10,8,15,6,20,0.05,2,,248
2013-1-5,36,24,11,30,23,10,96,80,64,30.36,30.27,30.15,10,8,2,14,6,16,0.02,4,Snow,179
2013-1-6,36,25,14,31,24,14,92,82,72,30.41,30.20,30.05,10,9,4,22,9,26,T,6,,273
2013-1-7,34,22,9,25,16,7,100,88,67,30.49,30.39,30.24,10,5,0,13,3,,0.00,1,Fog,159
2013-1-8,41,28,14,31,23,14,100,80,60,30.28,30.24,30.20,10,7,3,12,5,14,0.00,1,,145
2013-1-9,50,39,28,37,32,28,92,73,53,30.52,30.37,30.19,10,9,4,20,6,28,0.07,2,Rain,238
2013-1-10,51,39,26,50,37,25,100,84,67,30.52,30.25,29.96,10,7,2,14,7,18,0.53,6,Rain,98
2013-1-11,59,55,51,56,52,48,100,86,72,29.92,29.88,29.81,10,8,2,21,12,28,0.74,5,Rain,183
2013-1-12,63,52,41,56,52,42,100,84,67,29.99,29.86,29.71,10,6,2,25,7,32,1.76,5,Rain-Thunderstorm,2
2013-1-13,41,31,21,39,30,18,100,91,81,30.30,29.99,29.74,10,6,2,24,10,30,0.52,8,Rain-Snow,322
2013-1-14,24,21,17,19,15,12,91,82,73,30.50,30.42,30.31,10,10,10,13,5,18,0.00,4,,343
2013-1-15,30,24,18,23,19,16,91,77,63,30.44,30.33,30.14,10,9,5,14,7,17,0.00,4,,28
2013-1-16,34,29,23,25,23,20,92,74,56,30.13,30.09,30.03,10,10,7,13,6,16,0.00,4,,246
2013-1-17,40,33,25,30,25,17,92,73,54,30.47,30.27,30.13,10,10,9,20,7,26,0.00,4,,339
2013-1-18,39,29,19,27,21,16,91,72,52,30.53,30.40,30.19,10,10,10,22,10,29,0.00,0,,185
2013-1-19,53,45,36,37,31,25,76,61,46,30.19,30.05,29.91,10,10,10,25,14,35,0.00,0,,211
2013-1-20,44,34,23,33,16,10,81,64,46,30.33,30.24,30.01,10,10,10,25,10,33,0.00,3,,308
2013-1-21,23,17,11,18,6,-4,81,64,46,30.37,30.27,30.20,10,10,2,23,14,32,T,5,Snow,295
2013-1-22,18,12,6,-1,-3,-5,69,53,37,30.47,30.42,30.37,10,10,10,20,8,28,0.00,2,,290
2013-1-23,33,23,13,18,9,0,74,58,42,30.41,30.28,30.14,10,10,10,22,6,30,0.00,4,,240
2013-1-24,27,20,12,11,5,1,70,52,33,30.63,30.48,30.28,10,10,10,23,9,36,0.00,1,,30
2013-1-25,32,26,20,20,14,1,77,57,36,30.39,30.17,30.08,10,9,1,14,6,17,0.02,6,Snow,185
2013-1-26,33,25,16,19,15,11,84,64,43,30.43,30.35,30.20,10,10,10,13,5,17,0.01,0,,347
2013-1-27,42,31,19,40,26,15,100,78,56,30.41,30.26,30.06,10,8,3,17,10,24,0.20,5,Rain,138
2013-1-28,55,48,41,55,49,39,100,93,86,30.08,30.01,29.97,10,4,0,16,10,25,0.20,8,Fog-Rain,191
2013-1-29,67,60,53,59,55,51,100,89,78,29.97,29.73,29.35,10,9,6,37,19,49,0.02,7,Rain-Thunderstorm,181
2013-1-30,66,46,26,54,43,20,100,86,72,29.75,29.44,29.32,10,7,1,44,15,60,1.43,8,Rain-Snow-Thunderstorm,251
2013-1-31,30,21,11,23,15,1,75,67,58,30.25,29.98,29.76,10,7,1,28,17,37,T,7,Snow,277